User: anonymous   Login
Location: Downe
(51.3167°N, 0.0500°E)
Time: 15:15:11
(UTC+00:00)
Language:

Cosmos 1500 Rocket - Orbit

View from above orbital plane
View from above orbital plane
View from above satellite
View from above satellite

Ground track
Ground track

The orbit data is extracted from the following two-line orbital elements,

1 14373U 83099B   20020.69245986 +.00000051 +00000-0 +32456-5 0  9991
2 14373 082.5398 079.0068 0019666 344.0895 133.9581 14.83777724940278
Epoch (UTC): 20 January 2020 16:37:08
Eccentricity: 0.0019666
inclination: 82.5398°
perigee height: 603 km
apogee height: 631 km
right ascension of ascending node: 79.0068°
argument of perigee: 344.0895°
revolutions per day: 14.83777724
mean anomaly at epoch: 133.9581°
orbit number at epoch: 94027

The dashed part of the orbit path shows where the satellite is in the earth's shadow,  

DLR